CEST,Max TemperatureF,Mean TemperatureF,Min TemperatureF,Max Dew PointF,MeanDew PointF,Min DewpointF,Max Humidity, Mean Humidity, Min Humidity, Max Sea Level PressureIn, Mean Sea Level PressureIn, Min Sea Level PressureIn, Max VisibilityMiles, Mean VisibilityMiles, Min VisibilityMiles, Max Wind SpeedMPH, Mean Wind SpeedMPH, Max Gust SpeedMPH,PrecipitationIn, CloudCover, Events, WindDirDegrees
2012-9-1,80,74,69,66,64,63,78,64,54,30.12,30.07,30.01,6,6,6,13,6,,0.00,1,,75
2012-9-2,78,76,73,59,57,55,61,52,47,30.15,30.12,30.06,6,6,6,13,10,,0.00,2,,85
2012-9-3,80,70,60,61,58,54,77,57,44,30.12,30.05,30.01,6,6,6,14,6,,0.00,1,,171
2012-9-4,80,70,60,64,61,54,77,62,54,30.06,30.02,29.98,6,6,6,8,4,,0.00,1,,95
2012-9-5,82,76,69,68,65,61,73,65,58,30.06,30.03,29.98,6,6,6,13,9,,0.00,1,,54
2012-9-6,82,76,71,68,67,64,78,68,58,30.12,30.09,30.04,6,6,6,13,11,,0.00,1,,46
2012-9-7,82,76,71,70,67,64,83,70,62,30.18,30.14,30.12,6,6,6,16,10,,0.00,1,,31
2012-9-8,82,73,64,70,64,59,88,66,45,30.12,30.08,30.04,6,6,6,14,5,,0.00,1,,154
2012-9-9,82,73,64,68,67,61,88,73,61,30.06,30.03,29.98,6,4,2,13,5,,0.00,,,168
2012-9-10,80,72,64,70,67,63,94,75,65,30.04,30.01,29.98,6,5,3,8,4,,0.00,2,,120
2012-9-11,82,73,64,70,66,61,94,70,54,30.06,30.03,29.98,6,5,4,8,2,,0.00,1,,119
2012-9-12,86,75,64,68,63,59,83,60,43,30.04,29.98,29.89,6,6,6,15,5,,0.00,1,,197
2012-9-13,78,76,71,66,62,59,73,61,54,29.98,29.97,29.92,6,6,6,20,14,,0.00,1,,71
2012-9-14,78,70,62,66,62,57,83,66,54,30.01,29.98,29.95,6,6,6,13,5,,0.00,1,,155
2012-9-15,84,73,62,68,61,54,94,59,39,30.01,29.96,29.92,6,6,6,10,5,,0.00,1,,198
2012-9-16,80,70,59,72,64,48,83,68,48,29.98,29.94,29.89,,,,8,4,,0.00,,,97
2012-9-17,86,73,60,72,64,54,94,68,33,29.98,29.93,29.89,6,5,5,9,4,,0.00,1,,173
2012-9-18,80,72,64,70,68,59,83,78,70,29.95,29.91,29.86,6,6,6,7,3,,0.00,,,110
2012-9-19,80,78,75,73,72,70,89,81,74,30.01,29.95,29.86,6,6,6,14,11,,0.00,1,,62
2012-9-20,80,78,75,70,67,64,83,70,58,30.09,30.04,30.01,6,6,6,15,12,,0.00,3,,60
2012-9-21,80,78,75,72,69,66,89,75,65,30.01,29.98,29.92,6,6,6,16,13,,0.00,3,,48
2012-9-22,84,75,66,72,69,63,88,75,62,29.98,29.95,29.92,6,6,6,9,4,,0.00,1,,183
2012-9-23,84,76,68,72,69,66,94,76,62,29.98,29.90,29.83,5,5,4,13,4,,0.00,6,,192
2012-9-24,82,78,73,66,57,46,73,50,30,30.04,29.96,29.89,6,6,6,14,6,,0.00,1,,184
2012-9-25,80,70,60,63,55,46,78,52,34,29.86,29.78,29.71,,,,15,5,,0.00,,,187
2012-9-26,78,70,62,64,57,48,65,54,39,29.83,29.74,29.71,6,6,6,20,9,31,0.00,1,,230
2012-9-27,77,73,69,68,65,57,83,73,64,29.92,29.88,29.83,6,6,6,20,7,,0.00,2,,48
2012-9-28,73,70,66,70,67,61,100,89,83,29.83,29.74,29.65,6,5,0,33,20,40,0.00,3,Rain-Thunderstorm,61
2012-9-29,75,66,57,61,58,54,94,69,47,29.95,29.90,29.86,6,6,6,16,7,,0.00,1,,227
2012-9-30,73,68,64,63,61,59,88,75,65,30.09,30.05,30.01,6,6,6,10,5,,0.00,3,,102